Temperature
3 4 4 4 4 4 4 4 4 5 5 6 6 5 6 6 5 5 5 4 4 4 3 3 3 4 4 4 4 5 5 5 5 5 5 5 6 6 6 6 6 6 6 5
3 4 4 3 4 4 4 4 5 5 5 6 6 5 5 5 4 4 4 3 3 3 3 3 3 3 3 4 4 4 4 5 5 5 5 5 5 5 5 5 5 5 5 5
2 4 3 2 3 3 3 4 4 4 4 4 4 4 4 3 3 3 3 3 2 3 2 2 2 3 3 3 3 3 4 4 4 4 4 5 5 5 5 5 5 4 4 4
2 2 1 2 4 3 3 3 3 4 4 4 3 3 3 3 3 2 2 2 2 2 2 2 2 2 3 3 3 3 3 3 4 4 4 4 4 4 4 4 4 4 4 4
1 1 2 3 3 2 2 2 2 2 3 3 3 3 2 2 2 2 1 1 2 2 2 2 2 2 3 3 3 3 3 3 3 4 4 4 4 4 4 4 4 3 3 3
1 1 2 2 2 2 2 1 1 2 1 1 2 1 1 2 1 1 1 1 1 1 1 1 2 2 2 3 3 3 3 3 3 3 3 3 3 3 3 3 3 3 3 3
0 1 1 0 1 2 1 0 1 1 1 0 -0 0 0 1 0 0 0 1 1 1 1 1 1 2 2 2 2 2 2 2 2 2 3 3 3 3 3 3 3 3 2 2
-1 -0 0 -0 0 -0 -1 -0 -0 -0 -0 -0 -1 -0 -0 -0 -0 -0 -0 -0 0 0 0 1 1 1 2 2 2 2 2 2 2 2 2 2 2 2 2 2 2 2 2 2
-1 -1 -0 -0 -1 -1 -1 -1 -1 -1 -1 -1 -1 -2 -1 -1 -1 -1 -1 -1 -1 -0 -0 0 0 1 1 1 1 1 1 1 1 1 1 1 2 2 1 1 1 1 1 1
-2 -1 -1 -1 -1 -1 -2 -2 -2 -2 -2 -2 -2 -2 -2 -2 -2 -2 -2 -2 -1 -1 -1 -0 -0 0 0 1 1 1 1 1 1 1 1 1 1 1 1 1 1 1 1 1
-2 -2 -1 -1 -2 -2 -2 -2 -3 -3 -3 -3 -3 -3 -3 -3 -3 -3 -2 -2 -2 -2 -1 -1 -0 -0 0 0 0 1 0 0 0 0 0 0 0 0 0 -0 -0 -0 0 0
-2 -2 -2 -2 -2 -3 -3 -3 -3 -3 -3 -3 -3 -3 -3 -3 -3 -3 -3 -3 -2 -2 -2 -1 -1 -1 -0 -0 -0 -0 -0 -0 -0 -0 -0 -0 -0 -1 -1 -1 -1 -1 -1 -1
-3 -3 -3 -3 -3 -3 -3 -4 -4 -4 -4 -4 -4 -4 -4 -4 -4 -4 -3 -3 -3 -2 -2 -2 -1 -1 -1 -1 -1 -1 -1 -1 -1 -1 -1 -1 -1 -1 -1 -1 -1 -1 -1 -1
-4 -4 -4 -4 -4 -4 -4 -4 -4 -4 -4 -4 -4 -4 -4 -4 -4 -4 -4 -4 -3 -3 -3 -2 -2 -2 -2 -1 -1 -1 -1 -1 -1 -1 -1 -2 -2 -2 -2 -2 -2 -2 -1 -1
-4 -4 -4 -5 -5 -5 -5 -5 -4 -5 -5 -5 -5 -5 -5 -5 -5 -4 -4 -4 -4 -3 -3 -3 -3 -3 -2 -2 -2 -2 -2 -2 -2 -2 -2 -2 -2 -2 -2 -2 -2 -2 -2 -2
-5 -5 -5 -5 -5 -5 -5 -5 -5 -5 -5 -5 -5 -5 -5 -5 -5 -5 -5 -5 -4 -4 -4 -4 -3 -3 -3 -3 -3 -2 -2 -2 -2 -3 -3 -3 -3 -3 -3 -3 -3 -3 -3 -2
-6 -6 -6 -6 -6 -6 -6 -6 -6 -6 -5 -5 -5 -5 -5 -5 -5 -5 -5 -5 -5 -5 -5 -4 -4 -4 -4 -3 -3 -3 -3 -3 -3 -3 -3 -3 -3 -3 -3 -3 -3 -3 -3 -3
-6 -6 -6 -6 -6 -6 -6 -6 -6 -6 -6 -6 -6 -6 -6 -6 -6 -6 -6 -6 -5 -5 -5 -5 -5 -4 -4 -4 -4 -4 -4 -4 -4 -4 -4 -4 -4 -4 -4 -4 -4 -4 -3 -3
-6 -6 -6 -6 -6 -6 -6 -6 -6 -6 -6 -6 -6 -6 -6 -6 -6 -6 -6 -6 -6 -6 -5 -5 -5 -5 -5 -5 -5 -4 -4 -4 -4 -4 -4 -4 -4 -4 -4 -4 -4 -4 -4 -4
-6 -6 -6 -6 -6 -6 -6 -6 -6 -6 -6 -6 -6 -6 -7 -7 -7 -7 -7 -6 -6 -6 -6 -6 -6 -5 -5 -5 -5 -5 -5 -5 -5 -5 -5 -5 -5 -5 -4 -4 -4 -4 -4 -4
-7 -6 -6 -6 -6 -6 -6 -7 -7 -7 -7 -7 -7 -7 -7 -7 -7 -7 -7 -6 -6 -6 -6 -6 -6 -6 -6 -6 -6 -6 -6 -6 -6 -6 -5 -5 -5 -5 -5 -5 -5 -5 -5 -4
-7 -7 -7 -7 -7 -7 -7 -7 -7 -7 -7 -7 -7 -7 -7 -7 -7 -7 -7 -7 -7 -7 -7 -7 -7 -7 -6 -7 -7 -6 -6 -6 -6 -6 -6 -6 -5 -5 -5 -5 -5 -5 -5 -5
-7 -7 -7 -7 -7 -7 -7 -7 -7 -7 -7 -7 -7 -7 -7 -7 -7 -7 -7 -7 -7 -7 -7 -7 -7 -7 -7 -7 -7 -7 -7 -6 -6 -6 -6 -6 -6 -6 -6 -6 -6 -6 -5 -5
-7 -7 -7 -7 -8 -7 -7 -8 -8 -8 -8 -8 -8 -8 -8 -8 -8 -8 -8 -8 -8 -8 -8 -7 -7 -7 -7 -7 -7 -7 -7 -7 -7 -6 -6 -6 -6 -6 -6 -6 -6 -6 -6 -6
-8 -8 -8 -8 -8 -8 -8 -8 -8 -8 -8 -8 -8 -8 -8 -8 -8 -8 -8 -8 -8 -8 -8 -8 -8 -7 -7 -7 -7 -7 -7 -7 -7 -7 -7 -6 -6 -6 -6 -6 -6 -6 -6 -6
-8 -8 -8 -8 -8 -8 -8 -8 -9 -9 -9 -9 -9 -8 -8 -8 -8 -8 -8 -8 -8 -8 -8 -8 -8 -8 -8 -8 -7 -7 -7 -7 -7 -7 -7 -7 -7 -7 -7 -7 -6 -6 -6 -6
-8 -8 -9 -9 -9 -9 -9 -9 -9 -9 -9 -9 -9 -9 -9 -9 -9 -9 -9 -9 -9 -8 -8 -8 -8 -8 -8 -8 -8 -8 -7 -7 -7 -7 -7 -7 -7 -7 -7 -7 -7 -6 -6 -6
Wind_Speed
4 3 2 3 4 4 4 4 3 3 3 4 2 2 3 3 3 3 3 3 3 2 2 2 2 1 1 2 2 2 3 3 3 2 3 3 3 3 4 4 4 4 4 3
3 4 4 5 5 5 6 6 5 4 4 3 3 3 4 3 3 2 2 3 3 3 2 2 2 1 1 2 2 2 2 3 3 3 2 3 3 3 4 4 4 4 4 4
2 2 2 4 5 6 5 4 5 6 4 3 4 4 3 3 2 2 2 2 2 2 2 2 1 0 1 1 2 2 2 2 2 3 2 2 3 3 4 4 4 4 3 3
2 1 4 3 1 1 2 2 2 3 3 3 3 3 2 2 2 2 2 2 2 2 2 2 2 1 1 1 2 2 2 2 2 2 2 2 2 3 3 3 3 3 3 3
1 3 4 2 1 0 2 2 3 3 3 4 4 3 2 3 3 2 2 2 2 2 1 2 2 1 1 2 2 2 2 1 1 2 2 2 2 3 3 3 3 3 3 3
2 3 3 1 2 2 1 2 3 4 4 4 3 2 3 4 4 3 3 3 3 2 2 2 2 1 2 2 2 2 1 1 1 1 2 2 2 2 2 2 3 3 2 2
3 3 2 3 5 2 1 2 4 4 3 3 2 2 3 4 4 4 4 4 3 3 2 2 2 1 2 2 2 2 2 2 2 1 1 2 2 1 2 2 2 2 2 2
2 3 3 4 3 1 1 4 4 4 4 2 3 3 3 4 4 4 4 4 4 3 3 3 2 2 2 2 2 2 2 2 2 2 1 2 2 2 2 2 3 2 2 1
3 3 1 1 2 2 3 4 5 4 4 3 2 3 4 4 4 4 4 5 4 3 3 3 3 2 2 2 2 2 2 2 2 2 2 2 2 2 2 2 2 2 2 1
3 3 2 2 3 4 5 5 5 4 4 3 2 3 3 4 4 4 4 4 4 4 4 4 4 3 2 2 2 2 2 2 1 2 2 2 2 1 1 1 1 2 2 1
3 3 3 1 3 4 5 5 5 5 4 3 2 2 3 3 3 4 4 4 3 3 3 3 4 3 2 2 2 2 2 1 1 2 2 2 2 1 1 1 1 1 1 2
3 2 2 4 3 4 4 4 4 4 3 3 2 2 2 2 3 3 3 3 3 3 3 3 3 3 2 2 2 2 2 2 1 2 2 2 2 2 3 2 3 2 2 1
2 3 3 4 4 3 3 4 4 3 2 3 3 2 2 2 2 3 3 3 3 3 3 3 3 3 3 3 2 2 2 1 1 1 2 1 2 2 2 3 3 3 3 2
2 2 3 3 4 4 3 3 4 3 3 3 3 3 2 2 3 3 3 3 3 3 3 3 3 3 3 3 2 2 2 1 1 1 1 1 1 1 2 2 1 2 2 3
3 2 2 2 3 3 3 3 3 3 3 3 3 2 2 3 3 3 3 3 3 3 3 3 3 4 4 3 2 2 1 1 1 1 1 1 1 1 1 2 1 1 2 2
3 2 1 1 2 2 3 2 2 2 2 3 3 3 3 2 3 3 3 3 3 3 3 3 3 3 3 3 2 1 1 2 1 1 2 2 2 2 1 1 1 1 1 1
1 1 2 2 2 2 2 2 1 2 2 2 2 2 2 2 2 3 3 3 3 3 3 3 3 3 3 2 2 1 1 1 2 2 1 1 1 1 1 1 1 1 0 1
1 1 2 2 2 2 2 2 2 2 2 2 2 2 2 2 2 2 3 2 2 3 3 2 2 2 2 2 1 1 1 1 1 1 1 1 1 1 1 1 1 1 1 1
1 2 2 2 2 1 1 1 2 2 2 1 1 1 1 1 2 2 2 2 2 3 3 2 3 3 2 2 2 1 1 1 1 1 1 1 1 1 1 1 1 1 1 1
1 1 2 2 1 1 1 1 1 1 2 1 1 1 1 2 2 2 2 2 2 2 3 3 2 1 1 1 1 0 1 1 1 1 1 1 1 1 1 1 1 1 1 1
2 2 2 1 1 1 1 1 1 1 2 1 1 1 1 2 2 2 2 2 3 2 2 4 2 1 1 1 1 0 1 1 1 1 1 1 1 1 1 1 1 1 1 1
2 1 1 1 1 2 2 1 1 1 1 1 1 1 1 2 2 2 2 2 3 4 3 2 1 2 1 1 1 1 1 1 1 1 1 1 1 1 1 1 1 1 1 1
1 1 1 1 1 1 1 1 1 1 1 1 2 2 2 2 2 2 2 2 2 3 3 2 2 2 2 2 1 1 1 1 1 1 1 1 1 1 1 1 1 1 1 1
1 1 1 1 0 1 1 2 1 1 1 1 2 2 2 2 2 2 2 3 4 4 2 2 3 3 2 1 1 1 1 1 1 1 1 1 1 1 1 1 1 1 1 1
1 1 1 1 1 1 1 1 1 1 1 1 1 2 1 1 2 2 2 2 3 3 2 3 4 4 2 1 1 1 1 1 1 1 1 1 1 1 0 0 0 0 1 1
1 1 1 1 1 1 1 1 1 1 1 1 1 1 1 1 1 1 1 1 1 3 2 2 2 2 1 1 1 1 1 1 1 1 1 1 0 0 0 0 0 0 1 1
1 1 1 1 1 1 1 1 1 1 1 1 1 1 1 1 1 0 1 1 1 1 1 1 1 1 1 1 1 1 1 1 1 1 1 0 0 0 0 0 0 1 1 1
Wind_Direction
283 273 260 270 251 243 232 240 246 280 295 293 329 9 19 39 49 60 71 69 62 55 38 27 28 61 90 103 108 116 122 124 132 134 137 136 141 143 143 142 146 147 148 152
286 256 241 267 257 245 244 251 257 276 292 336 4 35 41 36 46 49 53 46 34 36 35 31 21 34 65 80 96 107 115 122 123 123 123 135 145 144 138 137 143 147 154 157
265 265 294 251 236 225 228 243 243 254 267 360 1 8 22 14 25 28 33 28 23 13 8 4 352 35 76 97 97 106 108 107 112 124 128 137 147 151 150 150 144 149 157 156
269 326 235 239 197 215 212 251 294 305 323 336 338 331 8 15 20 11 13 24 5 353 349 352 357 44 84 103 102 111 111 110 109 119 130 130 139 153 153 144 147 154 160 162
242 240 252 255 340 150 205 267 337 330 336 350 356 350 357 16 17 21 17 4 354 349 354 7 7 40 95 106 104 107 115 121 125 125 133 136 146 150 148 143 148 153 156 160
247 244 246 330 345 319 216 249 4 360 332 330 344 306 299 353 6 12 10 6 3 11 26 28 16 34 93 101 100 103 107 112 109 121 134 137 150 141 126 134 144 147 153 160
246 248 267 347 325 348 162 264 341 338 326 335 313 295 306 341 2 18 17 11 14 21 21 16 18 42 85 86 84 77 71 76 83 92 112 120 112 118 125 125 134 146 155 160
237 238 258 358 10 56 308 334 340 341 344 345 336 342 354 2 6 14 15 11 16 19 10 12 26 57 77 71 66 72 82 87 92 92 90 103 109 111 125 136 141 143 134 121
224 233 308 26 39 356 351 340 342 346 348 359 348 345 354 0 3 5 6 4 8 14 8 15 28 54 80 67 78 84 88 83 90 84 86 104 120 122 121 128 138 146 141 137
271 275 318 0 17 7 355 350 351 359 357 3 351 347 353 355 358 1 4 4 5 14 13 10 19 37 50 69 81 87 95 91 96 105 100 102 103 114 124 134 145 143 141 138
253 281 313 331 357 350 350 358 3 5 2 355 4 349 351 356 358 357 358 355 1 7 5 2 16 30 32 58 84 86 91 90 92 100 102 97 82 80 102 89 129 142 155 151
255 294 296 301 329 346 345 348 353 354 357 3 7 348 354 355 356 356 354 0 10 12 7 5 15 20 16 40 85 102 101 89 88 95 91 96 93 62 53 74 66 62 69 89
292 335 325 315 335 356 351 345 349 351 353 5 16 20 11 6 1 1 3 11 7 2 3 8 15 13 11 29 60 79 103 104 103 103 108 104 105 102 73 48 51 64 86 86
328 336 316 331 339 350 358 5 9 15 24 30 31 32 26 17 8 9 5 3 5 9 14 20 19 9 6 26 48 59 72 73 96 120 125 125 119 115 115 105 72 42 50 62
338 333 292 322 344 358 10 17 21 21 20 20 23 27 23 15 4 1 4 11 17 18 17 21 17 2 6 25 42 56 71 92 98 109 113 117 113 106 100 96 98 79 51 43
329 336 329 324 327 346 1 5 8 353 356 359 10 16 18 16 6 3 5 9 16 12 8 11 1 352 3 21 31 37 61 78 86 98 102 105 108 109 103 104 104 93 75 52
314 301 310 316 315 320 327 328 321 318 333 348 351 1 13 15 9 4 3 8 14 5 359 357 349 352 1 7 22 39 63 83 93 92 96 103 110 114 106 103 110 103 59 14
327 312 305 297 301 301 309 322 321 322 325 323 340 5 14 12 353 345 350 1 10 2 354 346 347 358 5 7 21 37 71 99 110 117 110 109 111 111 108 110 108 95 61 34
354 339 330 322 316 300 296 306 317 327 333 342 2 4 352 346 340 336 343 358 1 348 343 347 350 4 5 358 4 47 91 118 107 103 112 132 106 104 112 116 115 102 82 51
334 334 330 328 346 354 313 313 331 340 341 346 8 14 357 342 340 341 343 338 327 310 314 330 343 359 351 332 346 34 98 117 120 117 109 118 117 111 105 105 104 100 78 51
309 324 337 352 358 1 346 330 343 330 340 351 350 312 308 317 324 328 333 325 324 327 326 329 342 349 343 326 336 62 109 112 112 114 114 112 110 107 98 94 96 85 65 40
299 310 320 336 355 350 346 350 349 333 334 331 327 317 314 320 326 323 308 287 303 328 339 336 338 337 351 354 21 58 91 105 110 103 101 110 117 115 104 99 101 84 62 47
294 304 313 318 317 323 342 344 327 309 300 303 308 304 297 297 305 304 309 314 314 326 335 330 330 341 355 11 45 66 80 91 100 104 105 109 107 108 111 102 95 75 55 35
296 304 305 311 338 346 322 312 301 292 273 283 285 282 283 296 305 297 278 307 327 331 338 338 343 348 2 34 59 69 75 82 88 91 91 91 97 99 102 100 79 48 32 19
282 279 283 280 275 273 278 288 298 298 289 293 293 287 279 275 279 299 308 315 327 341 355 352 356 2 20 47 56 64 69 83 100 101 102 99 97 92 87 76 58 31 13 357
263 263 262 259 262 270 276 275 281 288 291 301 305 304 293 283 284 299 325 345 346 344 351 354 359 8 29 46 55 61 72 74 58 65 89 92 93 67 39 46 35 24 345 347
253 257 267 281 287 278 280 277 276 283 283 280 293 300 303 321 333 337 343 351 355 0 2 1 6 14 24 36 49 55 59 74 89 103 108 100 93 71 4 331 359 9 8 1
Height
1450 1447 1448 1449 1449 1448 1450 1449 1450 1445 1444 1443 1442 1443 1443 1443 1444 1445 1446 1446 1447 1447 1448 1448 1449 1450 1451 1452 1453 1455 1456 1458 1460 1462 1465 1466 1469 1471 1473 1474 1476 1477 1479 1480
1451 1446 1446 1448 1446 1446 1446 1446 1446 1445 1445 1442 1442 1443 1444 1444 1444 1445 1445 1446 1446 1446 1446 1447 1447 1448 1449 1450 1451 1453 1454 1456 1458 1460 1462 1464 1466 1468 1470 1471 1473 1475 1476 1477
1453 1446 1446 1451 1446 1445 1445 1445 1445 1446 1446 1444 1444 1445 1445 1445 1444 1445 1445 1445 1445 1445 1445 1446 1446 1447 1447 1448 1450 1451 1452 1454 1456 1457 1459 1461 1463 1465 1467 1469 1470 1472 1473 1474
1454 1453 1459 1450 1442 1443 1444 1445 1445 1445 1445 1444 1445 1445 1445 1445 1444 1444 1444 1444 1444 1444 1444 1444 1445 1446 1446 1447 1448 1450 1451 1452 1454 1455 1457 1459 1460 1462 1464 1466 1467 1469 1470 1471
1456 1455 1448 1445 1444 1445 1447 1447 1446 1446 1445 1445 1444 1443 1444 1444 1444 1444 1443 1443 1443 1443 1443 1443 1443 1444 1445 1445 1446 1448 1449 1450 1452 1453 1455 1456 1457 1459 1461 1463 1464 1466 1467 1468
1456 1454 1451 1449 1445 1443 1446 1449 1447 1446 1446 1445 1444 1446 1445 1444 1443 1442 1442 1442 1441 1441 1441 1441 1442 1442 1443 1443 1444 1446 1447 1449 1450 1451 1453 1454 1455 1457 1458 1460 1461 1463 1464 1465
1457 1455 1451 1451 1446 1444 1451 1452 1448 1446 1446 1445 1445 1446 1445 1443 1442 1441 1440 1440 1440 1440 1440 1440 1440 1441 1441 1442 1443 1444 1446 1447 1448 1449 1451 1452 1453 1455 1456 1457 1459 1460 1462 1463
1459 1457 1456 1451 1447 1451 1452 1449 1447 1446 1445 1444 1444 1443 1442 1441 1440 1439 1439 1439 1438 1438 1438 1439 1439 1440 1440 1441 1442 1443 1444 1445 1446 1448 1449 1450 1451 1452 1453 1454 1456 1457 1459 1460
1458 1457 1453 1451 1451 1451 1450 1448 1447 1446 1445 1444 1443 1442 1441 1440 1439 1439 1438 1438 1437 1437 1437 1437 1438 1438 1439 1440 1441 1442 1443 1444 1445 1446 1447 1448 1449 1450 1451 1452 1453 1454 1456 1457
1455 1452 1451 1451 1450 1450 1449 1448 1446 1445 1444 1443 1442 1441 1440 1439 1438 1438 1437 1437 1436 1436 1436 1436 1437 1437 1438 1439 1439 1440 1441 1442 1443 1444 1445 1446 1447 1448 1449 1450 1451 1452 1453 1454
1454 1452 1451 1450 1450 1449 1448 1446 1445 1444 1443 1442 1441 1440 1439 1439 1438 1437 1437 1436 1436 1435 1435 1435 1436 1436 1437 1437 1438 1439 1440 1441 1442 1443 1443 1444 1445 1446 1447 1449 1450 1451 1451 1452
1453 1452 1451 1450 1449 1448 1446 1445 1444 1442 1441 1440 1440 1439 1439 1438 1438 1437 1436 1435 1435 1435 1435 1434 1435 1435 1436 1436 1437 1437 1438 1439 1440 1441 1442 1443 1443 1445 1446 1448 1449 1450 1451 1451
1451 1450 1449 1448 1447 1446 1445 1444 1443 1442 1440 1439 1439 1439 1438 1437 1437 1437 1436 1435 1435 1434 1434 1434 1434 1434 1435 1435 1436 1436 1437 1438 1439 1440 1441 1441 1442 1443 1444 1446 1447 1448 1449 1449
1449 1449 1448 1447 1446 1445 1444 1443 1442 1441 1440 1439 1438 1438 1438 1437 1437 1436 1436 1435 1435 1434 1433 1433 1433 1433 1434 1434 1435 1435 1436 1437 1438 1438 1439 1440 1441 1442 1443 1443 1444 1445 1447 1448
1447 1447 1446 1445 1445 1444 1443 1442 1441 1440 1439 1439 1438 1438 1437 1436 1436 1436 1435 1435 1434 1433 1433 1433 1432 1432 1433 1433 1434 1434 1435 1435 1436 1437 1438 1439 1440 1441 1442 1442 1443 1443 1444 1445
1446 1445 1444 1444 1443 1443 1442 1441 1440 1439 1439 1438 1438 1437 1437 1436 1436 1435 1435 1434 1433 1433 1432 1432 1432 1432 1432 1432 1432 1433 1433 1434 1435 1436 1437 1438 1439 1440 1441 1441 1442 1442 1443 1443
1444 1443 1443 1442 1442 1441 1441 1440 1439 1439 1438 1437 1437 1436 1436 1435 1435 1434 1434 1434 1433 1432 1432 1431 1431 1431 1431 1431 1431 1432 1432 1433 1434 1435 1436 1437 1438 1439 1440 1440 1441 1441 1442 1442
1443 1442 1442 1441 1440 1440 1439 1439 1438 1438 1437 1437 1436 1436 1435 1434 1434 1433 1433 1432 1432 1431 1431 1431 1430 1430 1430 1430 1430 1431 1431 1432 1433 1433 1434 1436 1437 1437 1438 1439 1440 1440 1440 1441
1440 1440 1440 1439 1439 1438 1438 1437 1437 1437 1436 1436 1435 1434 1434 1433 1433 1432 1432 1431 1430 1429 1430 1430 1430 1429 1429 1429 1430 1430 1430 1431 1431 1432 1433 1434 1435 1436 1437 1438 1439 1439 1439 1440
1439 1439 1438 1438 1437 1437 1437 1436 1436 1435 1435 1435 1434 1433 1433 1432 1432 1431 1430 1430 1429 1429 1428 1428 1428 1428 1428 1428 1428 1429 1429 1429 1430 1431 1432 1433 1434 1435 1436 1437 1437 1438 1438 1439
1438 1437 1437 1436 1436 1436 1435 1435 1434 1434 1434 1433 1432 1432 1431 1431 1431 1430 1429 1428 1428 1428 1428 1427 1427 1427 1427 1427 1427 1427 1428 1428 1429 1430 1431 1432 1433 1433 1434 1435 1436 1436 1437 1437
1437 1436 1436 1435 1435 1434 1434 1433 1433 1432 1432 1431 1431 1430 1430 1429 1429 1428 1428 1428 1427 1427 1426 1426 1426 1426 1426 1426 1426 1426 1427 1427 1428 1429 1430 1431 1431 1432 1433 1434 1435 1435 1436 1436
1435 1435 1434 1434 1433 1433 1432 1432 1431 1431 1430 1430 1430 1429 1429 1428 1428 1427 1427 1427 1426 1426 1425 1425 1425 1425 1425 1425 1425 1425 1426 1427 1427 1428 1429 1430 1431 1431 1432 1433 1434 1434 1435 1435
1434 1433 1433 1432 1432 1431 1430 1430 1430 1429 1429 1429 1428 1428 1428 1427 1426 1426 1426 1425 1425 1425 1424 1424 1424 1424 1424 1424 1425 1425 1426 1426 1427 1427 1428 1429 1430 1431 1431 1432 1433 1433 1434 1434
1432 1432 1431 1431 1430 1430 1429 1429 1428 1428 1428 1427 1427 1427 1426 1426 1426 1425 1425 1424 1424 1424 1423 1423 1423 1424 1424 1424 1424 1424 1425 1425 1426 1427 1427 1428 1429 1430 1430 1431 1432 1432 1432 1432
1430 1430 1430 1429 1429 1428 1428 1427 1427 1426 1426 1426 1425 1425 1425 1425 1424 1424 1423 1423 1423 1423 1422 1422 1422 1423 1423 1423 1423 1424 1424 1425 1425 1426 1427 1427 1428 1429 1429 1430 1430 1431 1431 1431
1428 1428 1428 1427 1427 1427 1426 1426 1425 1425 1425 1424 1424 1424 1424 1423 1423 1422 1422 1422 1422 1422 1421 1421 1422 1422 1422 1422 1422 1423 1423 1424 1424 1425 1426 1426 1427 1428 1428 1429 1429 1429 1430 1430